Location: Unspecified
(42.3650°N, 71.1030°W)
Time: 21:50:14
(UTC+00:00)

Cosmos 2322 Rocket - Pass Details

Date: 02 March 2024
Orbit: 834 x 848 km, 71.0° (Epoch: 15 April)

Event Time Altitude Azimuth Distance (km) Brightness Sun altitude
Rises 23:16:36 0° 339° (NNW) 3,397 5.6 -8.3°
Reaches altitude 10° 23:19:07 10° 344° (NNW) 2,457 4.8 -8.7°
Maximum altitude 23:24:38 54° 61° (ENE) 1,009 2.3 -9.7°
Drops below altitude 10° 23:30:06 10° 139° (SE) 2,437 4.2 -10.8°
Sets 23:32:35 0° 144° (SE) 3,367 5.0 -11.2°
